Weather History for KACY - October, 2014

Change the Weather History Date:

Wednesday, October 29, 2014

  Actual Average Record
Temperature  
Mean Temperature 62 °F 52 °F  
Max Temperature 74 °F 63 °F 80 °F (1984)
Min Temperature 49 °F 42 °F 26 °F (1985)
Degree Days  
Heating Degree Days 3 13  
Month to date heating degree days 203 269  
Since 1 July heating degree days 241 331  
Cooling Degree Days 0 0  
Month to date cooling degree days 15 16  
Year to date cooling degree days 857 1050  
Growing Degree Days 13 (Base 50)    
Moisture  
Dew Point 54 °F    
Average Humidity 72    
Maximum Humidity 97    
Minimum Humidity 46    
Precipitation  
Precipitation T in 0.11 in 4.79 in (2012)
Month to date precipitation 3.22 3.18  
Year to date precipitation 43.46 34.55  
Snow  
Snow 0.00 in 0.00 in T in (2011)
Month to date snowfall 0.0 0.0  
Since 1 July snowfall 0.0 0.0  
Since 1 September snowfall 0.0 0.0  
Snow Depth 0.00 in    
Sea Level Pressure  
Sea Level Pressure 29.91 in    
Wind  
Wind Speed 8 mph (West)    
Max Wind Speed 22 mph    
Max Gust Speed 26 mph    
Visibility 10 miles    
Events Rain    
T = Trace of Precipitation, MM = Missing Value Source: NWS Daily Summary

Daily Weather History Graph

Daily Weather History Graph

Search for Another Location

Airport or City:

Trip Planner

Search our weather history database for the weather conditions in past years. The results will help you decide how hot, cold, wet, or windy it might be!

Date:

Astronomy

Oct. 29, 2014 Rise Set
Actual Time 7:23 AM EDT 6:00 PM EDT
Civil Twilight 6:55 AM EDT 6:28 PM EDT
Nautical Twilight 6:23 AM EDT 6:59 PM EDT
Astronomical Twilight 5:52 AM EDT 7:30 PM EDT
Moon 12:39 PM EDT (10/29) 11:07 PM EDT (10/29)
Length of Visible Light 11h 32m
Length of Day
10h 37m
Waxing Crescent, 34% of the Moon is Illuminated
Oct 29
Waxing Crescent
Oct 30
First Quarter
Nov 6
Full
Nov 14
Last Quarter
Nov 22
New

Hourly Weather History & Observations

Time (EDT) Temp. Dew Point Humidity Pressure Visibility Wind Dir Wind Speed Gust Speed Precip Events Conditions
12:54 AM 64.0 °F 57.9 °F 80% 29.94 in 10.0 mi South 4.6 mph - N/A   Clear
1:54 AM 64.0 °F 57.0 °F 78% 29.93 in 10.0 mi SSW 5.8 mph - N/A   Clear
2:54 AM 64.0 °F 57.0 °F 78% 29.92 in 10.0 mi South 5.8 mph - N/A   Clear
3:54 AM 64.9 °F 57.0 °F 75% 29.91 in 10.0 mi SSW 8.1 mph - N/A   Clear
4:54 AM 66.0 °F 57.9 °F 75% 29.91 in 10.0 mi SSW 8.1 mph - N/A   Clear
5:54 AM 64.9 °F 57.9 °F 78% 29.91 in 10.0 mi SSW 9.2 mph - N/A   Clear
6:54 AM 59.0 °F 55.0 °F 87% 29.91 in 10.0 mi Calm Calm - N/A   Clear
7:54 AM 61.0 °F 57.9 °F 90% 29.92 in 9.0 mi South 3.5 mph - N/A   Clear
8:54 AM 61.0 °F 59.0 °F 93% 29.92 in 8.0 mi SSW 4.6 mph - N/A   Clear
9:54 AM 66.9 °F 60.1 °F 79% 29.92 in 10.0 mi SW 8.1 mph - N/A   Clear
10:54 AM 70.0 °F 60.1 °F 71% 29.91 in 10.0 mi WSW 8.1 mph - N/A   Clear
11:54 AM 70.0 °F 59.0 °F 68% 29.89 in - WSW 10.4 mph - N/A   Clear
12:51 PM 71.6 °F 59.0 °F 64% 29.87 in - West 10.4 mph - N/A   Mostly Cloudy
12:54 PM 71.1 °F 59.0 °F 66% 29.87 in - West 9.2 mph - N/A   Mostly Cloudy
1:07 PM 72.0 °F 59.0 °F 64% 29.87 in - WSW 8.1 mph - N/A   Mostly Cloudy
1:54 PM 72.0 °F 57.0 °F 59% 29.85 in 10.0 mi NW 10.4 mph - N/A   Mostly Cloudy
2:54 PM 69.1 °F 55.0 °F 61% 29.86 in 10.0 mi NW 17.3 mph - N/A   Overcast
3:54 PM 66.0 °F 46.0 °F 48% 29.88 in 10.0 mi NNW 16.1 mph - N/A   Mostly Cloudy
4:54 PM 62.1 °F 41.0 °F 46% 29.90 in 10.0 mi NW 16.1 mph 24.2 mph N/A   Overcast
5:54 PM 59.0 °F 42.1 °F 53% 29.92 in 10.0 mi NW 20.7 mph - 0.00 in Rain Light Rain
6:54 PM 55.9 °F 46.0 °F 69% 29.93 in 10.0 mi NNW 6.9 mph - 0.00 in   Overcast
7:54 PM 55.0 °F 45.0 °F 69% 29.95 in 10.0 mi NW 6.9 mph - N/A   Overcast
8:54 PM 54.0 °F 46.0 °F 75% 29.96 in 10.0 mi WNW 8.1 mph - N/A   Overcast
9:54 PM 54.0 °F 46.0 °F 75% 29.97 in 10.0 mi NW 8.1 mph - N/A   Overcast
10:54 PM 53.1 °F 46.9 °F 80% 29.98 in 10.0 mi West 3.5 mph - N/A   Overcast
11:54 PM 51.1 °F 46.0 °F 83% 29.97 in 10.0 mi NW 4.6 mph - N/A   Scattered Clouds